Погода в Ричмонде

США     37°33′22″N   77°27′37″W
темп.,
°C
ветер,
м/с
пор.,
м/с
влажн.,
%
обл.,
%
осадки,
мм/ч
давл.,
гПа
погр.,
м
16 октября, сб
сб1623:00+21ю39730 0.0 1012264
02:00+19ю39775 0.0 1011276
05:00+19ю311810 0.0 1010320
08:00+18ю312841 0.0 1009376
11:00+25ююз510610 0.0 1007943
14:00+30юз6104496 0.0 10042410
17:00+17ссз41292100 6.0 1008962
20:00+16ссз398599 7.1 1012639
17 октября, вс
вс1723:00+14сз39800 0.2 1014505
02:00+11зсз38690 0.2 1015245
05:00+10зсз38680 0.0 1015270
08:00+10зсз411640 0.0 1016450
11:00+16сз59382 0.0 10171604
14:00+19сз58283 0.0 10152352
17:00+19сз49301 0.0 10142505
20:00+14сз39424 0.0 1017453
18 октября, пн
пн1823:00+12зсз311510 0.0 1018343
02:00+11з310550 0.0 1018295
05:00+10з311580 0.0 1018295
08:00+10з311600 0.0 1019306
11:00+17зсз58360 0.0 10181015
14:00+21зсз510270 0.0 10161932
17:00+21сз410280 0.0 10161952
20:00+16сз310430 0.0 1018348
19 октября, вт
вт1923:00+13зсз28540 0.0 1020202
02:00+12ссз23600 0.0 102198
05:00+11ссз11650 0.0 102235
08:00+10юз11660 0.0 102349
11:00+17юз23440 0.0 1023579
14:00+22юз34300 0.0 10211325
17:00+22юз35310 0.0 10191150
20:00+16ююз244833 0.0 102088
20 октября, ср
ср2023:00+15зюз285088 0.0 1020170
02:00+13з2755100 0.0 1021179
05:00+13зсз235842 0.0 102181
08:00+12сз12630 0.0 102242
11:00+20зюз01400 0.0 1022415
14:00+24юз12290 0.0 10211185
17:00+24з12290 0.0 10191037
20:00+18ю22410 0.0 102026